Regional Weather Roundup
Issued by NWS

Home | Current Version | Previous Version | Graphics & Text | Print | Product List | Glossary On
Versions: 1 2 3 4 5 6 7 8 9 10 11 12 13 14 15 16 17 18 19 20 21 22 23 24 25 26 27 28 29 30 31 32 33 34 35 36 37 38 39 40 41 42 43 44 45 46 47 48 49 50
686
ASUS45 KTFX 241010
RWRMT
MONTANA REGIONAL WEATHER ROUNDUP
NATIONAL WEATHER SERVICE GREAT FALLS MT
400 AM MDT TUE MAY 24 2016

NOTE: "FAIR" INDICATES FEW OR NO CLOUDS BELOW 12000 FEET WITH NO
SIGNIFICANT WEATHER AND/OR OBSTRUCTIONS TO VISIBILITY.

MTZ001>007-043-241100-
WEST OF THE DIVIDE

CITY           SKY/WX    TMP DP  RH WIND       PRES   REMARKS
KALISPELL      CLOUDY    44  43  96 CALM      29.90R
MISSOULA       LGT RAIN  43  41  93 CALM      29.92S
BUTTE          LGT RAIN  37  35  92 NE3       29.91S
MULLAN PASS    LGT RAIN  35  35 100 SW3       29.88S VSB 1/4
ANACONDA         N/A     37  36  93 S5        29.91S
DEER LODGE       N/A     39  39 100 CALM      29.92S
EUREKA           N/A     45  43  93 CALM      29.91R
HAMILTON         N/A     43  43 100 CALM      29.90S
LIBBY            N/A     46  45  93 CALM      29.90S
$$

MTZ008-052>055-241100-
SOUTHWEST MONTANA

CITY           SKY/WX    TMP DP  RH WIND       PRES   REMARKS
BOZEMAN        LGT RAIN  42  39  89 SE6       29.93S
DILLON         CLOUDY    36  34  92 S5        29.89F
ENNIS          CLOUDY    34  32  93 CALM      29.96S
$$

MTZ009-010-012-014-046-048-049-054-241100-
EAST SLOPES AND CENTRAL MONTANA

CITY           SKY/WX    TMP DP  RH WIND       PRES   REMARKS
CUT BANK       CLOUDY    40  38  93 NW6       29.88R
GREAT FALLS    CLOUDY    39  38  96 SW6       29.89S
MALMSTROM AFB  MOCLDY    42  41  95 W7        29.90S
HELENA         CLOUDY    43  41  93 E5        29.90S
CHOTEAU          N/A     39  39 100 W3        29.89S
$$

MTZ011-013-016-021-045-047-050-051-241100-
NORTH CENTRAL MONTANA

CITY           SKY/WX    TMP DP  RH WIND       PRES   REMARKS
HAVRE          CLOUDY    47  42  83 W10       29.84R
LEWISTOWN      CLOUDY    43  38  82 W3        29.89R
N BAR RANCH    MOCLDY    39  36  87 W8        29.89S
CHINOOK          N/A     48  43  81 W10       29.83R
$$

MTZ017>020-022>027-061-062-241100-
NORTHEAST MONTANA

CITY           SKY/WX    TMP DP  RH WIND       PRES   REMARKS
GLASGOW        PTCLDY    45  41  86 SW8       29.80S
JORDAN           N/A     43  40  89 W7        29.85R
SIDNEY         CLOUDY    44  40  85 SW7       29.83R
WOLF POINT     CLOUDY    48  44  86 SW5       29.81R
PLENTYWOOD       N/A     46  41  81 CALM      29.78S
POPLAR           N/A     46  43  87 SW5       29.81S
$$

MTZ028>42-056>058-241100-
SOUTHCENTRAL AND SOUTHEAST MONTANA

CITY           SKY/WX    TMP DP  RH WIND       PRES   REMARKS
BAKER          CLOUDY    41  37  86 CALM      29.87S
BILLINGS       CLOUDY    47  39  74 NW5       29.89S
LIVINGSTON     CLOUDY    43  35  73 W12       29.90S
MILES CITY     MOCLDY    50  40  68 CALM      29.87R
FORSYTH          N/A     48  41  76 CALM      29.86S
$$

REGIONAL REPORTS...DAKOTAS

CITY           SKY/WX    TMP DP  RH WIND       PRES   REMARKS
WILLISTON      PTCLDY    45  40  82 S3        29.81R
MINOT          MOCLDY    47  40  76 CALM      29.79R
DICKINSON      MOCLDY    41  34  76 SW5       29.83R
BEACH          MOCLDY    41  41 100 CALM      29.89R
CROSBY           N/A     43  43 100 SW8       29.81R
WATFORD CITY     N/A     43  37  81 SW5       29.83R
BISMARCK       CLEAR     49  45  86 W5        29.80R
GRAND FORKS    HVY RAIN  60  50  69 W12G29    29.81R
FARGO          CLOUDY    61  48  62 NW15      29.79R
BUFFALO SD       N/A     46  35  65 NW7       29.80S
RAPID CITY     CLEAR     45  35  68 NW12      29.85R
$$

REGIONAL REPORTS...WYOMING/IDAHO/WASHINGTON

CITY           SKY/WX    TMP DP  RH WIND       PRES   REMARKS
GILLETTE       CLEAR     31  28  89 SW3       29.89R
SHERIDAN       CLEAR     37  31  78 CALM      29.90R
BUFFALO WY     CLEAR     40  31  70 W7        29.92R
CODY           CLEAR     37  34  87 S3        29.90R
YELLOWSTONE LA   N/A     27  24  89 CALM      29.95F
IDAHO FALLS    CLOUDY    43  35  73 SE5       29.87F
SALMON         CLOUDY    39  36  87 CALM      29.88S
BOISE          CLEAR     47  38  71 SW3       29.84R
SPOKANE        LGT RAIN  49  45  86 SE5       29.86S
$$

REGIONAL REPORTS...ALBERTA

CITY           SKY/WX    TMP DP  RH WIND       PRES   REMARKS
EDMONTON       CLOUDY    46  41  81 E2        29.85S
CALGARY        MOCLDY    41  37  87 S2        29.86R
LETHBRIDGE     CLOUDY    45  41  87 W7        29.87R
MEDICINE HAT   LGT RAIN  46  46 100 W10       29.82S FOG
WATERTON GATE    N/A     37  36  93 SW6         N/A
MILK RIVER       N/A     43  39  87 W5          N/A
$$

REGIONAL REPORTS...SASKATCHEWAN

CITY           SKY/WX    TMP DP  RH WIND       PRES   REMARKS
SWIFT CURRENT  RAIN      45  45 100 MISG      29.72S
REGINA         MOCLDY    45  43  93 S3        29.72R
SASKATOON      LGT RAIN  50  50 100 NE15      29.76R
CYPRESS HILLS    N/A     41  39  93 NW7         N/A
VAL MARIE        N/A     46  45  93 W10         N/A
ROCKGLEN         N/A     46  45  93 SW13        N/A
$$




USA.gov is the U.S. government's official web portal to all federal, state and local government web resources and services.